Погода в Новом Мелькене

Россия / Республика Татарстан     55°41′48″N   53°17′37″E
темп.,
°C
ветер,
м/с
пор.,
м/с
влажн.,
%
обл.,
%
осадки,
мм/ч
давл.,
гПа
погр.,
м
9 марта, вт
вт900:00−11ююз119467 0.1 100121
03:00−10сз339183 0.4 100255
06:00−14зсз449499 0.0 100558
09:00−11з369366 0.0 1008237
12:00−8з348973 0.0 1009368
15:00−7юз239087 0.0 1009364
18:00−13юз119767 0.0 100921
21:00−14ссв119978 0.0 100920
10 марта, ср
ср1000:00−14с229899 0.1 100720
03:00−14с239797 0.1 100643
06:00−15с61094100 0.2 1006293
09:00−17с71189100 0.3 1008385
12:00−16ссз7118484 0.0 1009501
15:00−15ссз7118169 0.0 1011682
18:00−18ссз5118771 0.0 1014246
21:00−21ссз5128966 0.0 1016270
11 марта, чт
чт1100:00−23сз599169 0.0 1017189
03:00−25сз479466 0.0 1018113
06:00−27зсз459538 0.0 102070
09:00−21зсз479539 0.0 1021278
12:00−17зсз579196 0.0 1021452
15:00−14зсз589099 0.1 1021490
18:00−15з51194100 0.1 1021280
21:00−14з6119399 0.1 1022285
12 марта, пт
пт1200:00−14з599389 0.0 1023157
03:00−16з589255 0.0 1024129
06:00−18з49940 0.0 1026132
09:00−14з6108410 0.0 1027300
12:00−9з7118183 0.0 1027566
15:00−9з7118287 0.0 1026610
18:00−11з6138691 0.0 1027406
21:00−11з6139096 0.0 1028441
13 марта, сб
сб1300:00−11з6129199 0.0 1029404
03:00−12з6129199 0.0 1030352
06:00−14з51191100 0.0 1031281
09:00−12з5986100 0.0 1032344
12:00−9з5881100 0.0 1032412
15:00−8з5982100 0.0 1032435
18:00−12зюз469098 0.0 1031106
21:00−14зюз349294 0.0 103166